Flag for U.S.A. Weather past 2 weeks in Charleston, West Virginia, U.S.A.

Now
79 °F

Scattered clouds.


Feels Like: 81 °F
Forecast: 60 / 78 °F
Wind: 14 mph from Southwest

Location: Yeager Airport

Current Time: Sep 21, 2014 at 4:40:54 PM

Latest Report: Sep 21, 2014 at 3:54 PM


Visibility: 10 mi

Pressure: 29.75 "Hg

Humidity: 65%

Dew point: 66 °F

Location of CharlestonLocation

Historic Weather in Charleston — Graph

°F

Charleston temperature yesterday

Maximum temperature yesterday: 81 °F (at 1:54 PM)
Minimum temperature yesterday: 59 °F (at 6:54 AM)
Average temperature yesterday: 69 °F

Past Weeks' High & Low Weather Summary

 TemperatureHumidityPressure
High84 °F (Sep 9, 5:54 PM)100% (Sep 6, 3:54 PM)30.30 "Hg (Sep 6, 3:54 PM)
Low50 °F (Sep 14, 3:54 AM)20% (Sep 11, 7:54 PM)29.78 "Hg (Sep 21, 2:54 PM)
Average65 °F84%30.07 "Hg
* Reported Sep 6 2:54 PM — Sep 21 2:54 PM, Charleston, Weather by CustomWeather, © 2014

Note: Actual official high and low records may vary slightly from our data, if they occured in-between our weather recording intervals... More about our weather records

Advertising

Charleston weather history for previous 24 hours

 ConditionsComfort  
Time TempWeatherWind HumidityBarometerVisibility
2:54 PM
Sep 21
77 °FPartly sunny.10 mph71%29.78 "Hg10 mi
1:54 PM75 °FCloudy.13 mph76%29.80 "Hg10 mi
12:54 PM72 °FOvercast.13 mph81%29.83 "Hg10 mi
11:54 AM74 °FOvercast.12 mph76%29.84 "Hg10 mi
10:54 AM72 °FMostly cloudy.6 mph81%29.85 "Hg10 mi
9:54 AM71 °FLight rain. Partly sunny.12 mph81%29.86 "Hg9 mi
8:54 AM68 °FBroken clouds.5 mph87%29.88 "Hg9 mi
7:54 AM65 °FPassing clouds.5 mph94%29.88 "Hg9 mi
7:01 AM61 °FPassing clouds.No wind97%29.90 "Hg8 mi
5:54 AM61 °FClear.No wind100%29.88 "Hg8 mi
4:54 AM63 °FClear.No wind93%29.88 "Hg8 mi
3:54 AM61 °FFog.3 mph100%29.90 "Hg6 mi
2:54 AM61 °FFog.No wind100%29.92 "Hg6 mi
1:54 AM63 °FFog.No wind100%29.94 "Hg6 mi
12:54 AM64 °FFog.No wind100%29.95 "Hg6 mi
11:54 PM
Sep 20
64 °FFog.No wind100%29.98 "Hg6 mi
10:54 PM66 °FClear.No wind96%30.01 "Hg7 mi
9:54 PM67 °FClear.No wind93%30.01 "Hg9 mi
8:54 PM69 °FPassing clouds.No wind90%30.00 "Hg10 mi
7:54 PM71 °FPassing clouds.No wind87%29.97 "Hg10 mi
6:54 PM77 °FScattered clouds.No wind66%29.98 "Hg10 mi
5:54 PM79 °FScattered clouds.9 mph58%29.99 "Hg10 mi
4:54 PM81 °FScattered clouds.3 mph54%30.02 "Hg10 mi
Weather by CustomWeather, © 2014

See weather overviewHow to use our weather pages